User: anonymous   Login
Location: Prairie State College
(41.5244°N, 87.6382°W)
Time: 00:25:06
(UTC-05:00)
Language:

MSX - Orbit

View from above orbital plane
View from above orbital plane
View from above satellite
View from above satellite

Ground track
Ground track

The orbit data is extracted from the following two-line orbital elements,

1 23851U 96024A   15086.80778831 0.00000000  00000-0  00000-0 0    05
2 23851  98.7368 124.5904 0008394  63.2036 296.7963 13.98005942    04
Epoch (UTC): 27 March 2015 19:23:12
Eccentricity: 0.0008394
inclination: 98.7368°
perigee height: 894 km
apogee height: 907 km
right ascension of ascending node: 124.5904°
argument of perigee: 63.2036°
revolutions per day: 13.98005942
mean anomaly at epoch: 296.7963°
orbit number at epoch: 0

The dashed part of the orbit path shows where the satellite is in the earth's shadow,  

DLR